Location: Kaarina
(60.4167°N, 22.4167°E)
Time: 08:52:52
(UTC+03:00)

ERS-1 Rocket - Pass Details

Date: 24 August 2019
Orbit: 753 x 758 km, 98.5° (Epoch: 22 September)

Event Time Altitude Azimuth Distance (km) Brightness Sun altitude
Exits shadow 23:18:47 10° 190° (S) 2,266 5.0 -13.8°
Maximum altitude 23:23:31 43° 262° (W) 1,058 3.9 -14.1°
Drops below altitude 10° 23:28:20 10° 334° (NNW) 2,294 6.9 -14.4°
Sets 23:30:45 0° 341° (NNW) 3,223 7.9 -14.6°
